,,,PA_Meas_PMT16A,,PR_Meas_QMR101_102,,RH_Meas_QMH101,,SR_Meas_QMS101,,TA_Meas_QMH101,,GenWind,,GenWind,
date,time,status,PA,status,PR,status,RH,status,SR,status,TA,status,DirAvg,status,SpdAvg,
2011-09-02, 00:00:05,VALID,1001.3,VALID,0,VALID,91.4181,VALID,0,VALID,23.2507,VALID,84,VALID,0.383594,
2011-09-02, 00:01:05,VALID,1001.32,VALID,0,VALID,91.4791,VALID,0.112286,VALID,23.2524,VALID,84,VALID,0.0273438,
2011-09-02, 00:02:05,VALID,1001.3,VALID,0,VALID,91.5326,VALID,0,VALID,23.2524,VALID,84,VALID,0,
2011-09-02, 00:03:05,VALID,1001.29,VALID,0,VALID,91.586,VALID,0,VALID,23.2329,VALID,84,VALID,0,
2011-09-02, 00:04:05,VALID,1001.26,VALID,0,VALID,91.6241,VALID,0,VALID,23.2134,VALID,84,VALID,0,
2011-09-02, 00:05:05,VALID,1001.28,VALID,0,VALID,91.6699,VALID,0.112286,VALID,23.1726,VALID,84,VALID,0,
2011-09-02, 00:06:05,VALID,1001.27,VALID,0,VALID,91.7233,VALID,0,VALID,23.1939,VALID,84,VALID,0,
2011-09-02, 00:07:05,VALID,1001.28,VALID,0,VALID,91.7843,VALID,0.112286,VALID,23.1726,VALID,84,VALID,0,
2011-09-02, 00:08:05,VALID,1001.29,VALID,0,VALID,91.8148,VALID,0,VALID,23.1531,VALID,84,VALID,0,
2011-09-02, 00:09:05,VALID,1001.29,VALID,0,VALID,91.853,VALID,0,VALID,23.1566,VALID,84,VALID,0,
2011-09-02, 00:10:05,VALID,1001.27,VALID,0,VALID,91.9064,VALID,0,VALID,23.1549,VALID,84,VALID,0,
2011-09-02, 00:11:05,VALID,1001.2,VALID,0,VALID,91.9293,VALID,0,VALID,23.1566,VALID,84,VALID,0,
2011-09-02, 00:12:05,VALID,1001.22,VALID,0,VALID,91.9369,VALID,0,VALID,23.1371,VALID,83,VALID,0.819141,
2011-09-02, 00:13:05,VALID,1001.22,VALID,0,VALID,91.8759,VALID,0,VALID,23.1371,VALID,79,VALID,0.887891,
2011-09-02, 00:14:05,VALID,1001.21,VALID,0,VALID,91.8454,VALID,0,VALID,23.1176,VALID,67,VALID,0.794531,
2011-09-02, 00:15:05,VALID,1001.21,VALID,0,VALID,91.8148,VALID,0,VALID,23.1176,VALID,66,VALID,0.816406,
2011-09-02, 00:16:05,VALID,1001.2,VALID,0,VALID,91.792,VALID,0,VALID,23.1176,VALID,54,VALID,0.811719,
2011-09-02, 00:17:05,VALID,1001.19,VALID,0,VALID,91.792,VALID,0,VALID,23.1176,VALID,42,VALID,0.894531,
2011-09-02, 00:18:05,VALID,1001.18,VALID,0,VALID,91.7691,VALID,0,VALID,23.0981,VALID,42,VALID,1.07578,
2011-09-02, 00:19:05,VALID,1001.19,VALID,0,VALID,91.7538,VALID,0,VALID,23.0769,VALID,42,VALID,0.976953,
2011-09-02, 00:20:05,VALID,1001.19,VALID,0,VALID,91.7691,VALID,0,VALID,23.0786,VALID,42,VALID,0.980859,
2011-09-02, 00:21:05,VALID,1001.2,VALID,0,VALID,91.7767,VALID,0,VALID,23.0981,VALID,42,VALID,0.886719,
2011-09-02, 00:22:05,VALID,1001.2,VALID,0,VALID,91.7767,VALID,0,VALID,23.0769,VALID,42,VALID,0.826953,
2011-09-02, 00:23:05,VALID,1001.22,VALID,0,VALID,91.7996,VALID,0,VALID,23.0981,VALID,42,VALID,0.528516,
2011-09-02, 00:24:05,VALID,1001.23,VALID,0,VALID,91.7996,VALID,0,VALID,23.0769,VALID,42,VALID,0.310547,
2011-09-02, 00:25:05,VALID,1001.22,VALID,0,VALID,91.8072,VALID,0,VALID,23.0981,VALID,42,VALID,0.160156,
2011-09-02, 00:26:05,VALID,1001.26,VALID,0,VALID,91.8225,VALID,0,VALID,23.0786,VALID,42,VALID,0,
2011-09-02, 00:27:05,VALID,1001.27,VALID,0,VALID,91.8454,VALID,0,VALID,23.0573,VALID,42,VALID,0,
2011-09-02, 00:28:05,VALID,1001.25,VALID,0,VALID,91.8988,VALID,0,VALID,23.0591,VALID,42,VALID,0.110937,
2011-09-02, 00:29:05,VALID,1001.25,VALID,0,VALID,91.9293,VALID,0,VALID,23.0573,VALID,42,VALID,0.239063,
2011-09-02, 00:30:05,VALID,1001.26,VALID,0,VALID,91.9598,VALID,0,VALID,23.0573,VALID,42,VALID,0.119922,
2011-09-02, 00:31:05,VALID,1001.26,VALID,0,VALID,91.998,VALID,0,VALID,23.0378,VALID,42,VALID,0.0957031,
2011-09-02, 00:32:05,VALID,1001.23,VALID,0,VALID,92.0361,VALID,0,VALID,23.0591,VALID,42,VALID,0,
2011-09-02, 00:33:05,VALID,1001.2,VALID,0,VALID,92.0895,VALID,0,VALID,23.0786,VALID,42,VALID,0.0367187,
2011-09-02, 00:34:05,VALID,1001.21,VALID,0,VALID,92.1506,VALID,0,VALID,23.0769,VALID,42,VALID,0.06875,
2011-09-02, 00:35:05,VALID,1001.16,VALID,0,VALID,92.1887,VALID,0,VALID,23.0573,VALID,42,VALID,0.148047,
2011-09-02, 00:36:05,VALID,1001.18,VALID,0,VALID,92.2116,VALID,0,VALID,23.0786,VALID,42,VALID,0.220313,
2011-09-02, 00:37:05,VALID,1001.15,VALID,0,VALID,92.2268,VALID,0,VALID,23.0573,VALID,42,VALID,0.352734,
2011-09-02, 00:38:05,VALID,1001.14,VALID,0,VALID,92.2421,VALID,0,VALID,23.0591,VALID,42,VALID,0.287109,
2011-09-02, 00:39:05,VALID,1001.12,VALID,0,VALID,92.2497,VALID,0,VALID,23.0964,VALID,42,VALID,0.400781,
2011-09-02, 00:40:05,VALID,1001.15,VALID,0,VALID,92.2726,VALID,0,VALID,23.0769,VALID,42,VALID,0.386719,
2011-09-02, 00:41:05,VALID,1001.15,VALID,0,VALID,92.2879,VALID,0,VALID,23.0769,VALID,42,VALID,0.153125,
2011-09-02, 00:42:05,VALID,1001.14,VALID,0,VALID,92.2955,VALID,0,VALID,23.0964,VALID,42,VALID,0.329688,
2011-09-02, 00:43:05,VALID,1001.13,VALID,0,VALID,92.2955,VALID,0.112286,VALID,23.0964,VALID,42,VALID,0,
2011-09-02, 00:44:05,VALID,1001.14,VALID,0,VALID,92.2497,VALID,0,VALID,23.0769,VALID,138,VALID,0.852344,
2011-09-02, 00:45:05,VALID,1001.14,VALID,0,VALID,92.1658,VALID,0.112286,VALID,23.0769,VALID,138,VALID,0.777344,
2011-09-02, 00:46:05,VALID,1001.11,VALID,0,VALID,92.0209,VALID,0.112286,VALID,23.0946,VALID,138,VALID,0.654688,
2011-09-02, 00:47:05,VALID,1001.12,VALID,0,VALID,91.8225,VALID,0,VALID,23.1141,VALID,138,VALID,0.727344,
2011-09-02, 00:48:05,VALID,1001.1,VALID,0,VALID,91.647,VALID,0.112286,VALID,23.1726,VALID,138,VALID,0.594922,
2011-09-02, 00:49:05,VALID,1001.09,VALID,0,VALID,91.4486,VALID,0.112286,VALID,23.1939,VALID,138,VALID,0.592969,
2011-09-02, 00:50:05,VALID,1001.1,VALID,0,VALID,91.3418,VALID,0.112286,VALID,23.1921,VALID,143,VALID,0.948828,
2011-09-02, 00:51:05,VALID,1001.08,VALID,0,VALID,91.1968,VALID,0,VALID,23.2524,VALID,152,VALID,1.05,
2011-09-02, 00:52:05,VALID,1001.08,VALID,0,VALID,91.1663,VALID,0,VALID,23.2915,VALID,151,VALID,1.16445,
2011-09-02, 00:53:05,VALID,1001.08,VALID,0,VALID,91.1511,VALID,0,VALID,23.3305,VALID,162,VALID,1.25312,
2011-09-02, 00:54:05,VALID,1001.04,VALID,0,VALID,91.1511,VALID,0,VALID,23.3518,VALID,187,VALID,1.1293,
2011-09-02, 00:55:05,VALID,1001.06,VALID,0,VALID,91.029,VALID,0,VALID,23.35,VALID,187,VALID,1.23867,
2011-09-02, 00:56:05,VALID,1001.05,VALID,0.5,VALID,90.8077,VALID,0,VALID,23.35,VALID,187,VALID,1.17109,
2011-09-02, 00:57:05,VALID,1001.02,VALID,0,VALID,90.5712,VALID,0,VALID,23.3908,VALID,187,VALID,0.917969,
2011-09-02, 00:58:05,VALID,1001.03,VALID,0,VALID,90.4339,VALID,0,VALID,23.3908,VALID,187,VALID,0.875391,
2011-09-02, 00:59:05,VALID,1001.04,VALID,0,VALID,90.4644,VALID,0,VALID,23.4103,VALID,185,VALID,0.930469,
2011-09-02, 01:00:05,VALID,1001.04,VALID,0,VALID,90.4949,VALID,0,VALID,23.4103,VALID,198,VALID,1.46055,
2011-09-02, 01:01:05,VALID,1001.03,VALID,0,VALID,90.4568,VALID,0,VALID,23.4103,VALID,203,VALID,1.20742,
2011-09-02, 01:02:05,VALID,1001.01,VALID,0,VALID,90.5026,VALID,0,VALID,23.4103,VALID,196,VALID,1.01875,
2011-09-02, 01:03:05,VALID,1001.01,VALID,0,VALID,90.4873,VALID,0,VALID,23.3908,VALID,192,VALID,1.33555,
2011-09-02, 01:04:05,VALID,1000.97,VALID,0,VALID,90.3881,VALID,0,VALID,23.3713,VALID,191,VALID,1.09297,
2011-09-02, 01:05:05,VALID,1000.96,VALID,0,VALID,90.3652,VALID,0,VALID,23.3713,VALID,191,VALID,1.05781,
2011-09-02, 01:06:05,VALID,1000.97,VALID,0,VALID,90.4568,VALID,0,VALID,23.3695,VALID,170,VALID,1.5957,
2011-09-02, 01:07:05,VALID,1000.94,VALID,0,VALID,90.5102,VALID,0,VALID,23.3908,VALID,179,VALID,1.63828,
2011-09-02, 01:08:05,VALID,1000.94,VALID,0,VALID,90.3881,VALID,0,VALID,23.3713,VALID,181,VALID,1.58711,
2011-09-02, 01:09:05,VALID,1000.96,VALID,0,VALID,90.3118,VALID,0,VALID,23.35,VALID,187,VALID,1.4332,
2011-09-02, 01:10:05,VALID,1000.93,VALID,0,VALID,90.3728,VALID,0,VALID,23.3713,VALID,186,VALID,1.22383,
2011-09-02, 01:11:05,VALID,1000.98,VALID,0,VALID,90.556,VALID,0,VALID,23.3695,VALID,175,VALID,1.53867,
2011-09-02, 01:12:05,VALID,1000.96,VALID,0,VALID,90.6323,VALID,0,VALID,23.35,VALID,175,VALID,1.45664,
2011-09-02, 01:13:05,VALID,1000.97,VALID,0,VALID,90.6323,VALID,0,VALID,23.311,VALID,174,VALID,1.39805,
2011-09-02, 01:14:05,VALID,1000.97,VALID,0,VALID,90.6094,VALID,0,VALID,23.3127,VALID,174,VALID,1.11172,
2011-09-02, 01:15:05,VALID,1000.98,VALID,0,VALID,90.7085,VALID,0,VALID,23.2915,VALID,174,VALID,1.21328,
2011-09-02, 01:16:05,VALID,1000.94,VALID,0,VALID,90.7772,VALID,0,VALID,23.2524,VALID,174,VALID,1.15391,
2011-09-02, 01:17:05,VALID,1000.95,VALID,0,VALID,90.8611,VALID,0,VALID,23.2329,VALID,174,VALID,0.990234,
2011-09-02, 01:18:05,VALID,1000.95,VALID,0,VALID,90.9603,VALID,0,VALID,23.2347,VALID,174,VALID,0.910156,
2011-09-02, 01:19:05,VALID,1000.93,VALID,0,VALID,91.0595,VALID,0,VALID,23.1939,VALID,174,VALID,0.837891,
2011-09-02, 01:20:05,VALID,1000.92,VALID,0,VALID,91.1663,VALID,0,VALID,23.2152,VALID,174,VALID,0.741797,
2011-09-02, 01:21:05,VALID,1000.89,VALID,0,VALID,91.2045,VALID,0,VALID,23.1957,VALID,174,VALID,0.671094,
2011-09-02, 01:22:05,VALID,1000.9,VALID,0,VALID,91.2731,VALID,0,VALID,23.1957,VALID,174,VALID,0.74375,
2011-09-02, 01:23:05,VALID,1000.89,VALID,0,VALID,91.296,VALID,0,VALID,23.1744,VALID,174,VALID,0.841016,
2011-09-02, 01:24:05,VALID,1000.86,VALID,0,VALID,91.2808,VALID,0,VALID,23.1744,VALID,140,VALID,0.830469,
2011-09-02, 01:25:05,VALID,1000.84,VALID,0,VALID,91.2655,VALID,0,VALID,23.1957,VALID,143,VALID,0.850391,
2011-09-02, 01:26:05,VALID,1000.87,VALID,0,VALID,91.2579,VALID,0,VALID,23.2134,VALID,143,VALID,0.596875,
2011-09-02, 01:27:05,VALID,1000.84,VALID,0,VALID,91.2274,VALID,0,VALID,23.2347,VALID,143,VALID,0.645312,
2011-09-02, 01:28:05,VALID,1000.85,VALID,0,VALID,91.1663,VALID,0,VALID,23.2329,VALID,143,VALID,0.753516,
2011-09-02, 01:29:05,VALID,1000.82,VALID,0,VALID,91.1053,VALID,0,VALID,23.2737,VALID,143,VALID,0.83125,
2011-09-02, 01:30:05,VALID,1000.83,VALID,0,VALID,90.9298,VALID,0,VALID,23.2737,VALID,143,VALID,0.989453,
2011-09-02, 01:31:05,VALID,1000.8,VALID,0,VALID,90.7543,VALID,0,VALID,23.2719,VALID,143,VALID,0.994922,
2011-09-02, 01:32:05,VALID,1000.76,VALID,0,VALID,90.556,VALID,0,VALID,23.2915,VALID,143,VALID,0.814844,
2011-09-02, 01:33:05,VALID,1000.79,VALID,0,VALID,90.3881,VALID,0,VALID,23.3518,VALID,143,VALID,0.782422,
2011-09-02, 01:34:05,VALID,1000.82,VALID,0,VALID,90.0143,VALID,0,VALID,23.3305,VALID,147,VALID,1.20469,
2011-09-02, 01:35:05,VALID,1000.78,VALID,0,VALID,89.7014,VALID,0,VALID,23.3695,VALID,140,VALID,1.17891,
2011-09-02, 01:36:05,VALID,1000.81,VALID,0,VALID,89.1826,VALID,0,VALID,23.4103,VALID,137,VALID,1.31484,
2011-09-02, 01:37:05,VALID,1000.84,VALID,0,VALID,88.9461,VALID,0,VALID,23.428,VALID,155,VALID,1.19414,
2011-09-02, 01:38:05,VALID,1000.83,VALID,0,VALID,88.8469,VALID,0,VALID,23.4671,VALID,163,VALID,1.19805,
2011-09-02, 01:39:05,VALID,1000.8,VALID,0,VALID,88.6867,VALID,0,VALID,23.4866,VALID,161,VALID,1.06016,
2011-09-02, 01:40:05,VALID,1000.83,VALID,0,VALID,88.7706,VALID,0,VALID,23.5061,VALID,157,VALID,1.15859,
2011-09-02, 01:41:05,VALID,1000.82,VALID,0,VALID,88.8317,VALID,0,VALID,23.5061,VALID,157,VALID,1.1207,
2011-09-02, 01:42:05,VALID,1000.86,VALID,0,VALID,88.7935,VALID,0,VALID,23.4866,VALID,160,VALID,1.20469,
2011-09-02, 01:43:05,VALID,1000.86,VALID,0,VALID,88.6562,VALID,0,VALID,23.4866,VALID,146,VALID,0.79375,
2011-09-02, 01:44:05,VALID,1000.88,VALID,0,VALID,88.6867,VALID,0,VALID,23.5079,VALID,146,VALID,0.696875,
2011-09-02, 01:45:05,VALID,1000.89,VALID,0,VALID,88.8851,VALID,0,VALID,23.4866,VALID,146,VALID,0.38125,
2011-09-02, 01:46:05,VALID,1000.91,VALID,0,VALID,89.0529,VALID,0,VALID,23.4671,VALID,146,VALID,0.511328,
2011-09-02, 01:47:05,VALID,1000.86,VALID,0,VALID,89.1063,VALID,0,VALID,23.428,VALID,146,VALID,0.480469,
2011-09-02, 01:48:05,VALID,1000.88,VALID,0,VALID,89.1368,VALID,0,VALID,23.4298,VALID,146,VALID,0.523828,
2011-09-02, 01:49:05,VALID,1000.89,VALID,0,VALID,89.1216,VALID,0,VALID,23.4103,VALID,146,VALID,0.373047,
2011-09-02, 01:50:05,VALID,1000.88,VALID,0,VALID,89.1521,VALID,0,VALID,23.3695,VALID,146,VALID,0.428125,
2011-09-02, 01:51:05,VALID,1000.89,VALID,0,VALID,89.2666,VALID,0,VALID,23.3908,VALID,146,VALID,0.338281,
2011-09-02, 01:52:05,VALID,1000.9,VALID,0,VALID,89.4115,VALID,0,VALID,23.3695,VALID,146,VALID,0.315625,
2011-09-02, 01:53:05,VALID,1000.87,VALID,0,VALID,89.5794,VALID,0,VALID,23.3695,VALID,146,VALID,0.329688,
2011-09-02, 01:54:05,VALID,1000.89,VALID,0,VALID,89.9074,VALID,0,VALID,23.35,VALID,146,VALID,0.664844,
2011-09-02, 01:55:04,VALID,1000.86,VALID,0,VALID,90.2355,VALID,0,VALID,23.3305,VALID,123,VALID,0.707812,
2011-09-02, 01:56:04,VALID,1000.86,VALID,0,VALID,90.5178,VALID,0,VALID,23.2702,VALID,123,VALID,0.768359,
2011-09-02, 01:57:04,VALID,1000.87,VALID,0,VALID,90.762,VALID,0,VALID,23.2524,VALID,123,VALID,0.777734,
2011-09-02, 01:58:04,VALID,1000.85,VALID,0,VALID,90.9451,VALID,0,VALID,23.1939,VALID,123,VALID,0.671875,
2011-09-02, 01:59:04,VALID,1000.86,VALID,0,VALID,91.1053,VALID,0,VALID,23.1744,VALID,123,VALID,0.534375,
2011-09-02, 02:00:04,VALID,1000.85,VALID,0,VALID,91.235,VALID,0,VALID,23.1566,VALID,123,VALID,0.466016,
2011-09-02, 02:01:04,VALID,1000.87,VALID,0,VALID,91.3571,VALID,0,VALID,23.1371,VALID,123,VALID,0.364062,
2011-09-02, 02:02:04,VALID,1000.87,VALID,0,VALID,91.5097,VALID,0,VALID,23.0964,VALID,123,VALID,0.523438,
2011-09-02, 02:03:04,VALID,1000.86,VALID,0,VALID,91.6012,VALID,0,VALID,23.0769,VALID,123,VALID,0.697656,
2011-09-02, 02:04:04,VALID,1000.85,VALID,0,VALID,91.6928,VALID,0,VALID,23.0573,VALID,123,VALID,0.588281,
2011-09-02, 02:05:04,VALID,1000.86,VALID,0,VALID,91.7767,VALID,0,VALID,23.0573,VALID,123,VALID,0.686719,
2011-09-02, 02:06:04,VALID,1000.88,VALID,0,VALID,91.853,VALID,0,VALID,23.0378,VALID,123,VALID,0.4875,
2011-09-02, 02:07:04,VALID,1000.87,VALID,0,VALID,91.9445,VALID,0,VALID,23.0378,VALID,123,VALID,0.387109,
2011-09-02, 02:08:04,VALID,1000.85,VALID,0,VALID,91.9903,VALID,0,VALID,23.0378,VALID,123,VALID,0.285937,
2011-09-02, 02:09:04,VALID,1000.86,VALID,0,VALID,92.0514,VALID,0,VALID,22.9988,VALID,123,VALID,0.119531,
2011-09-02, 02:10:04,VALID,1000.85,VALID,0,VALID,92.12,VALID,0,VALID,23.0201,VALID,123,VALID,0.105469,
2011-09-02, 02:11:04,VALID,1000.85,VALID,0,VALID,92.1734,VALID,0,VALID,23.0183,VALID,123,VALID,0.295703,
2011-09-02, 02:12:04,VALID,1000.85,VALID,0,VALID,92.2192,VALID,0,VALID,23.0396,VALID,123,VALID,0.460938,
2011-09-02, 02:13:04,VALID,1000.84,VALID,0,VALID,92.2803,VALID,0,VALID,23.0183,VALID,123,VALID,0.187891,
2011-09-02, 02:14:04,VALID,1000.85,VALID,0,VALID,92.3031,VALID,0,VALID,23.0396,VALID,123,VALID,0.305859,
2011-09-02, 02:15:04,VALID,1000.87,VALID,0,VALID,92.3566,VALID,0,VALID,23.0183,VALID,123,VALID,0.0183594,
2011-09-02, 02:16:04,VALID,1000.88,VALID,0,VALID,92.4023,VALID,0,VALID,22.9988,VALID,123,VALID,0,
2011-09-02, 02:17:04,VALID,1000.9,VALID,0,VALID,92.4252,VALID,0,VALID,23.0396,VALID,123,VALID,0.0941406,
2011-09-02, 02:18:04,VALID,1000.87,VALID,0,VALID,92.4405,VALID,0,VALID,22.9988,VALID,123,VALID,0,
2011-09-02, 02:19:04,VALID,1000.91,VALID,0,VALID,92.4481,VALID,0,VALID,22.9988,VALID,123,VALID,0,
2011-09-02, 02:20:04,VALID,1000.92,VALID,0,VALID,92.4863,VALID,0,VALID,22.9988,VALID,123,VALID,0,
2011-09-02, 02:21:04,VALID,1000.92,VALID,0,VALID,92.4939,VALID,0,VALID,22.9793,VALID,123,VALID,0,
2011-09-02, 02:22:04,VALID,1000.91,VALID,0,VALID,92.5015,VALID,0,VALID,22.9988,VALID,123,VALID,0,
2011-09-02, 02:23:04,VALID,1000.92,VALID,0,VALID,92.5473,VALID,0,VALID,22.9988,VALID,123,VALID,0.374609,
2011-09-02, 02:24:04,VALID,1000.93,VALID,0,VALID,92.5702,VALID,0,VALID,23.0201,VALID,123,VALID,0.399219,
2011-09-02, 02:25:04,VALID,1000.9,VALID,0,VALID,92.6007,VALID,0,VALID,23.0201,VALID,123,VALID,0.0171875,
2011-09-02, 02:26:04,VALID,1000.88,VALID,0,VALID,92.6007,VALID,0,VALID,23.0006,VALID,123,VALID,0.221484,
2011-09-02, 02:27:04,VALID,1000.88,VALID,0,VALID,92.6236,VALID,0,VALID,22.9988,VALID,123,VALID,0.489062,
2011-09-02, 02:28:04,VALID,1000.9,VALID,0,VALID,92.616,VALID,0,VALID,23.0183,VALID,123,VALID,0.450391,
2011-09-02, 02:29:04,VALID,1000.9,VALID,0,VALID,92.6465,VALID,0,VALID,22.9988,VALID,123,VALID,0.451953,
2011-09-02, 02:30:04,VALID,1000.9,VALID,0,VALID,92.6465,VALID,0,VALID,23.0183,VALID,123,VALID,0.600781,
2011-09-02, 02:31:04,VALID,1000.88,VALID,0,VALID,92.6541,VALID,0,VALID,22.9988,VALID,123,VALID,0.360156,
2011-09-02, 02:32:04,VALID,1000.87,VALID,0,VALID,92.6694,VALID,0,VALID,22.9988,VALID,123,VALID,0.421484,
2011-09-02, 02:33:04,VALID,1000.87,VALID,0,VALID,92.677,VALID,0,VALID,22.9793,VALID,123,VALID,0.483203,
2011-09-02, 02:34:04,VALID,1000.86,VALID,0,VALID,92.6999,VALID,0,VALID,22.9988,VALID,123,VALID,0.417578,
2011-09-02, 02:35:04,VALID,1000.87,VALID,0,VALID,92.7228,VALID,0,VALID,22.9988,VALID,123,VALID,0.534766,
2011-09-02, 02:36:04,VALID,1000.88,VALID,0,VALID,92.738,VALID,0,VALID,22.9793,VALID,123,VALID,0.588672,
2011-09-02, 02:37:04,VALID,1000.87,VALID,0,VALID,92.7685,VALID,0,VALID,22.9811,VALID,123,VALID,0.735156,
2011-09-02, 02:38:04,VALID,1000.91,VALID,0,VALID,92.7685,VALID,0,VALID,22.9403,VALID,123,VALID,0.636328,
2011-09-02, 02:39:04,VALID,1000.93,VALID,0,VALID,92.7762,VALID,0,VALID,22.9208,VALID,123,VALID,0.630469,
2011-09-02, 02:40:04,VALID,1000.86,VALID,0,VALID,92.7991,VALID,0,VALID,22.9013,VALID,123,VALID,0.578906,
2011-09-02, 02:41:04,VALID,1000.88,VALID,0,VALID,92.7838,VALID,0,VALID,22.8623,VALID,122,VALID,0.762109,
2011-09-02, 02:42:04,VALID,1000.85,VALID,0,VALID,92.7533,VALID,0,VALID,22.864,VALID,73,VALID,0.830078,
2011-09-02, 02:43:04,VALID,1000.89,VALID,0,VALID,92.7151,VALID,0,VALID,22.8445,VALID,45,VALID,0.989062,
2011-09-02, 02:44:04,VALID,1000.85,VALID,0,VALID,92.6999,VALID,0,VALID,22.8037,VALID,44,VALID,0.726172,
2011-09-02, 02:45:04,VALID,1000.82,VALID,0,VALID,92.6541,VALID,0,VALID,22.7842,VALID,44,VALID,0.658594,
2011-09-02, 02:46:04,VALID,1000.84,VALID,0,VALID,92.6312,VALID,0,VALID,22.7647,VALID,44,VALID,0.717188,
2011-09-02, 02:47:04,VALID,1000.84,VALID,0,VALID,92.616,VALID,0,VALID,22.7664,VALID,44,VALID,0.690625,
2011-09-02, 02:48:04,VALID,1000.81,VALID,0,VALID,92.5626,VALID,0,VALID,22.7469,VALID,44,VALID,0.605078,
2011-09-02, 02:49:04,VALID,1000.84,VALID,0,VALID,92.5549,VALID,0,VALID,22.7257,VALID,44,VALID,0.162891,
2011-09-02, 02:50:04,VALID,1000.84,VALID,0,VALID,92.5473,VALID,0,VALID,22.7274,VALID,44,VALID,0,
2011-09-02, 02:51:04,VALID,1000.83,VALID,0,VALID,92.471,VALID,0,VALID,22.7079,VALID,44,VALID,0.382422,
2011-09-02, 02:52:04,VALID,1000.81,VALID,0,VALID,92.4786,VALID,0,VALID,22.6867,VALID,44,VALID,0.736719,
2011-09-02, 02:53:04,VALID,1000.82,VALID,0,VALID,92.4557,VALID,0,VALID,22.7062,VALID,44,VALID,0.938672,
2011-09-02, 02:54:04,VALID,1000.82,VALID,0,VALID,92.4481,VALID,0,VALID,22.7469,VALID,44,VALID,0.866406,
2011-09-02, 02:55:04,VALID,1000.83,VALID,0,VALID,92.4634,VALID,0,VALID,22.7257,VALID,44,VALID,0.425781,
2011-09-02, 02:56:04,VALID,1000.84,VALID,0,VALID,92.4634,VALID,0,VALID,22.7257,VALID,44,VALID,0.317578,
2011-09-02, 02:57:04,VALID,1000.84,VALID,0,VALID,92.4634,VALID,0,VALID,22.7062,VALID,44,VALID,0.425391,
2011-09-02, 02:58:04,VALID,1000.79,VALID,0,VALID,92.4328,VALID,0,VALID,22.7274,VALID,44,VALID,0.308203,
2011-09-02, 02:59:04,VALID,1000.8,VALID,0,VALID,92.3871,VALID,0,VALID,22.6672,VALID,44,VALID,0.296094,
2011-09-02, 03:00:04,VALID,1000.79,VALID,0,VALID,92.3566,VALID,0,VALID,22.6884,VALID,44,VALID,0.384766,
2011-09-02, 03:01:04,VALID,1000.77,VALID,0,VALID,92.2726,VALID,0,VALID,22.6282,VALID,44,VALID,0.141406,
2011-09-02, 03:02:04,VALID,1000.78,VALID,0,VALID,92.204,VALID,0,VALID,22.6282,VALID,44,VALID,0.0816406,
2011-09-02, 03:03:04,VALID,1000.78,VALID,0,VALID,92.12,VALID,0,VALID,22.6282,VALID,44,VALID,0.333203,
2011-09-02, 03:04:04,VALID,1000.77,VALID,0,VALID,92.0743,VALID,0,VALID,22.6282,VALID,44,VALID,0.474219,
2011-09-02, 03:05:04,VALID,1000.79,VALID,0,VALID,91.998,VALID,0,VALID,22.6494,VALID,44,VALID,0.653516,
2011-09-02, 03:06:04,VALID,1000.79,VALID,0,VALID,91.9445,VALID,0,VALID,22.6282,VALID,44,VALID,0.8875,
2011-09-02, 03:07:04,VALID,1000.77,VALID,0,VALID,91.8835,VALID,0,VALID,22.6299,VALID,44,VALID,1.03789,
2011-09-02, 03:08:04,VALID,1000.78,VALID,0.5,VALID,91.8377,VALID,0,VALID,22.6299,VALID,44,VALID,0.859375,
2011-09-02, 03:09:04,VALID,1000.78,VALID,0,VALID,91.7843,VALID,0,VALID,22.6104,VALID,44,VALID,0.842969,
2011-09-02, 03:10:04,VALID,1000.75,VALID,0,VALID,91.7385,VALID,0,VALID,22.5909,VALID,44,VALID,0.855469,
2011-09-02, 03:11:04,VALID,1000.76,VALID,0,VALID,91.6775,VALID,0,VALID,22.5714,VALID,44,VALID,0.837109,
2011-09-02, 03:12:04,VALID,1000.75,VALID,0,VALID,91.6775,VALID,0,VALID,22.5714,VALID,44,VALID,1.03125,
2011-09-02, 03:13:04,VALID,1000.76,VALID,0,VALID,91.6699,VALID,0,VALID,22.5714,VALID,44,VALID,0.971484,
2011-09-02, 03:14:04,VALID,1000.75,VALID,0,VALID,91.6775,VALID,0,VALID,22.5926,VALID,44,VALID,1.10352,
2011-09-02, 03:15:04,VALID,1000.77,VALID,0,VALID,91.7233,VALID,0,VALID,22.5714,VALID,47,VALID,0.962891,
2011-09-02, 03:16:04,VALID,1000.78,VALID,0,VALID,91.7233,VALID,0,VALID,22.5519,VALID,47,VALID,1.0332,
2011-09-02, 03:17:04,VALID,1000.75,VALID,0,VALID,91.7691,VALID,0,VALID,22.5519,VALID,54,VALID,1.21602,
2011-09-02, 03:18:04,VALID,1000.76,VALID,0,VALID,91.8072,VALID,0,VALID,22.5714,VALID,54,VALID,1.19219,
2011-09-02, 03:19:04,VALID,1000.73,VALID,0,VALID,91.8835,VALID,0,VALID,22.5519,VALID,55,VALID,1.29375,
2011-09-02, 03:20:04,VALID,1000.7,VALID,0,VALID,91.9293,VALID,0,VALID,22.5501,VALID,57,VALID,1.55078,
2011-09-02, 03:21:04,VALID,1000.71,VALID,0,VALID,91.9598,VALID,0,VALID,22.5519,VALID,57,VALID,1.01641,
2011-09-02, 03:22:04,VALID,1000.72,VALID,0,VALID,92.0209,VALID,0,VALID,22.5306,VALID,53,VALID,1.12578,
2011-09-02, 03:23:04,VALID,1000.69,VALID,0,VALID,92.0743,VALID,0,VALID,22.5111,VALID,53,VALID,1.1332,
2011-09-02, 03:24:04,VALID,1000.69,VALID,0,VALID,92.0743,VALID,0,VALID,22.5323,VALID,44,VALID,1.21445,
2011-09-02, 03:25:04,VALID,1000.7,VALID,0,VALID,92.1124,VALID,0,VALID,22.5128,VALID,43,VALID,1.25703,
2011-09-02, 03:26:04,VALID,1000.69,VALID,0,VALID,92.12,VALID,0,VALID,22.4933,VALID,38,VALID,1.41992,
2011-09-02, 03:27:04,VALID,1000.68,VALID,0,VALID,92.1506,VALID,0,VALID,22.4933,VALID,38,VALID,1.39961,
2011-09-02, 03:28:04,VALID,1000.68,VALID,0,VALID,92.2116,VALID,0,VALID,22.4933,VALID,46,VALID,1.59922,
2011-09-02, 03:29:04,VALID,1000.69,VALID,0,VALID,92.2421,VALID,0,VALID,22.4933,VALID,41,VALID,1.63789,
2011-09-02, 03:30:04,VALID,1000.69,VALID,0,VALID,92.265,VALID,0,VALID,22.4933,VALID,36,VALID,1.4543,
2011-09-02, 03:31:04,VALID,1000.67,VALID,0,VALID,92.2955,VALID,0,VALID,22.4721,VALID,36,VALID,1.40469,
2011-09-02, 03:32:04,VALID,1000.68,VALID,0,VALID,92.2955,VALID,0,VALID,22.4738,VALID,36,VALID,1.39922,
2011-09-02, 03:33:04,VALID,1000.7,VALID,0,VALID,92.3184,VALID,0,VALID,22.4738,VALID,37,VALID,1.41484,
2011-09-02, 03:34:04,VALID,1000.68,VALID,0,VALID,92.3489,VALID,0,VALID,22.4543,VALID,38,VALID,1.30313,
2011-09-02, 03:35:04,VALID,1000.68,VALID,0,VALID,92.3566,VALID,0,VALID,22.4543,VALID,48,VALID,1.49844,
2011-09-02, 03:36:04,VALID,1000.69,VALID,0,VALID,92.3566,VALID,0,VALID,22.4348,VALID,41,VALID,1.37188,
2011-09-02, 03:37:04,VALID,1000.7,VALID,0,VALID,92.3413,VALID,0,VALID,22.4136,VALID,47,VALID,0.902734,
2011-09-02, 03:38:04,VALID,1000.71,VALID,0,VALID,92.326,VALID,0,VALID,22.4153,VALID,43,VALID,1.15195,
2011-09-02, 03:39:04,VALID,1000.72,VALID,0,VALID,92.3031,VALID,0,VALID,22.3958,VALID,43,VALID,1.09063,
2011-09-02, 03:40:04,VALID,1000.73,VALID,0,VALID,92.2879,VALID,0,VALID,22.3958,VALID,43,VALID,0.882422,
2011-09-02, 03:41:04,VALID,1000.75,VALID,0,VALID,92.265,VALID,0,VALID,22.3958,VALID,43,VALID,0.561328,
2011-09-02, 03:42:04,VALID,1000.79,VALID,0,VALID,92.265,VALID,0,VALID,22.3958,VALID,43,VALID,0.482422,
2011-09-02, 03:43:04,VALID,1000.76,VALID,0,VALID,92.2497,VALID,0,VALID,22.3958,VALID,43,VALID,0.707031,
2011-09-02, 03:44:04,VALID,1000.82,VALID,0,VALID,92.265,VALID,0,VALID,22.3958,VALID,144,VALID,0.996875,
2011-09-02, 03:45:04,VALID,1000.8,VALID,0,VALID,92.265,VALID,0,VALID,22.3941,VALID,158,VALID,1.30117,
2011-09-02, 03:46:04,VALID,1000.77,VALID,0,VALID,92.3031,VALID,0,VALID,22.4348,VALID,170,VALID,1.32852,